Index of /20260428/WXO-DD/model_caps/3km/12/025
Name Last modified Size Description
Parent Directory -
20260428T12Z_MSC_CAPS_AbsoluteVorticity_IsbL-0250_RLatLon0.03_PT025H.grib2 2026-04-28 18:14 1.0M
20260428T12Z_MSC_CAPS_AbsoluteVorticity_IsbL-0500_RLatLon0.03_PT025H.grib2 2026-04-28 18:14 1.1M
20260428T12Z_MSC_CAPS_AbsoluteVorticity_IsbL-0700_RLatLon0.03_PT025H.grib2 2026-04-28 18:14 1.2M
20260428T12Z_MSC_CAPS_AbsoluteVorticity_IsbL-0850_RLatLon0.03_PT025H.grib2 2026-04-28 18:14 1.2M
20260428T12Z_MSC_CAPS_AbsoluteVorticity_IsbL-1000_RLatLon0.03_PT025H.grib2 2026-04-28 18:14 1.4M
20260428T12Z_MSC_CAPS_AirDensity_AGL-120m_RLatLon0.03_PT025H.grib2 2026-04-28 18:14 1.4M
20260428T12Z_MSC_CAPS_AirDensity_AGL-40m_RLatLon0.03_PT025H.grib2 2026-04-28 18:14 1.5M
20260428T12Z_MSC_CAPS_AirDensity_AGL-80m_RLatLon0.03_PT025H.grib2 2026-04-28 18:14 1.4M
20260428T12Z_MSC_CAPS_AirTemp_AGL-120m_RLatLon0.03_PT025H.grib2 2026-04-28 18:14 1.4M
20260428T12Z_MSC_CAPS_AirTemp_AGL-2m_RLatLon0.03_PT025H.grib2 2026-04-28 18:14 1.7M
20260428T12Z_MSC_CAPS_AirTemp_AGL-40m_RLatLon0.03_PT025H.grib2 2026-04-28 18:14 1.5M
20260428T12Z_MSC_CAPS_AirTemp_AGL-80m_RLatLon0.03_PT025H.grib2 2026-04-28 18:14 1.5M
20260428T12Z_MSC_CAPS_AirTemp_IsbL-0050_RLatLon0.03_PT025H.grib2 2026-04-28 18:14 689K
20260428T12Z_MSC_CAPS_AirTemp_IsbL-0100_RLatLon0.03_PT025H.grib2 2026-04-28 18:14 962K
20260428T12Z_MSC_CAPS_AirTemp_IsbL-0150_RLatLon0.03_PT025H.grib2 2026-04-28 18:14 1.0M
20260428T12Z_MSC_CAPS_AirTemp_IsbL-0175_RLatLon0.03_PT025H.grib2 2026-04-28 18:14 776K
20260428T12Z_MSC_CAPS_AirTemp_IsbL-0200_RLatLon0.03_PT025H.grib2 2026-04-28 18:14 792K
20260428T12Z_MSC_CAPS_AirTemp_IsbL-0225_RLatLon0.03_PT025H.grib2 2026-04-28 18:14 790K
20260428T12Z_MSC_CAPS_AirTemp_IsbL-0250_RLatLon0.03_PT025H.grib2 2026-04-28 18:14 784K
20260428T12Z_MSC_CAPS_AirTemp_IsbL-0275_RLatLon0.03_PT025H.grib2 2026-04-28 18:14 1.0M
20260428T12Z_MSC_CAPS_AirTemp_IsbL-0300_RLatLon0.03_PT025H.grib2 2026-04-28 18:14 858K
20260428T12Z_MSC_CAPS_AirTemp_IsbL-0350_RLatLon0.03_PT025H.grib2 2026-04-28 18:14 1.0M
20260428T12Z_MSC_CAPS_AirTemp_IsbL-0400_RLatLon0.03_PT025H.grib2 2026-04-28 18:14 751K
20260428T12Z_MSC_CAPS_AirTemp_IsbL-0450_RLatLon0.03_PT025H.grib2 2026-04-28 18:14 765K
20260428T12Z_MSC_CAPS_AirTemp_IsbL-0500_RLatLon0.03_PT025H.grib2 2026-04-28 18:14 782K
20260428T12Z_MSC_CAPS_AirTemp_IsbL-0550_RLatLon0.03_PT025H.grib2 2026-04-28 18:14 793K
20260428T12Z_MSC_CAPS_AirTemp_IsbL-0600_RLatLon0.03_PT025H.grib2 2026-04-28 18:14 808K
20260428T12Z_MSC_CAPS_AirTemp_IsbL-0650_RLatLon0.03_PT025H.grib2 2026-04-28 18:14 1.0M
20260428T12Z_MSC_CAPS_AirTemp_IsbL-0700_RLatLon0.03_PT025H.grib2 2026-04-28 18:14 1.0M
20260428T12Z_MSC_CAPS_AirTemp_IsbL-0750_RLatLon0.03_PT025H.grib2 2026-04-28 18:14 1.0M
20260428T12Z_MSC_CAPS_AirTemp_IsbL-0800_RLatLon0.03_PT025H.grib2 2026-04-28 18:14 1.0M
20260428T12Z_MSC_CAPS_AirTemp_IsbL-0850_RLatLon0.03_PT025H.grib2 2026-04-28 18:14 1.1M
20260428T12Z_MSC_CAPS_AirTemp_IsbL-0875_RLatLon0.03_PT025H.grib2 2026-04-28 18:14 1.1M
20260428T12Z_MSC_CAPS_AirTemp_IsbL-0900_RLatLon0.03_PT025H.grib2 2026-04-28 18:14 1.1M
20260428T12Z_MSC_CAPS_AirTemp_IsbL-0925_RLatLon0.03_PT025H.grib2 2026-04-28 18:14 1.2M
20260428T12Z_MSC_CAPS_AirTemp_IsbL-0950_RLatLon0.03_PT025H.grib2 2026-04-28 18:14 1.2M
20260428T12Z_MSC_CAPS_AirTemp_IsbL-0970_RLatLon0.03_PT025H.grib2 2026-04-28 18:14 1.2M
20260428T12Z_MSC_CAPS_AirTemp_IsbL-0985_RLatLon0.03_PT025H.grib2 2026-04-28 18:14 1.1M
20260428T12Z_MSC_CAPS_AirTemp_IsbL-1000_RLatLon0.03_PT025H.grib2 2026-04-28 18:14 1.0M
20260428T12Z_MSC_CAPS_AirTemp_IsbL-1015_RLatLon0.03_PT025H.grib2 2026-04-28 18:14 1.1M
20260428T12Z_MSC_CAPS_Albedo_Sfc_RLatLon0.03_PT025H.grib2 2026-04-28 18:14 2.7M
20260428T12Z_MSC_CAPS_CAPE_Sfc_RLatLon0.03_PT025H.grib2 2026-04-28 18:14 51K
20260428T12Z_MSC_CAPS_CloudWater_EAtm_RLatLon0.03_PT025H.grib2 2026-04-28 18:14 1.4M
20260428T12Z_MSC_CAPS_ConvectivePrecip-Accum_Sfc_RLatLon0.03_PT025H.grib2 2026-04-28 18:14 3.8M
20260428T12Z_MSC_CAPS_DewPointDepression_AGL-120m_RLatLon0.03_PT025H.grib2 2026-04-28 18:14 2.1M
20260428T12Z_MSC_CAPS_DewPointDepression_AGL-2m_RLatLon0.03_PT025H.grib2 2026-04-28 18:14 2.1M
20260428T12Z_MSC_CAPS_DewPointDepression_AGL-40m_RLatLon0.03_PT025H.grib2 2026-04-28 18:14 2.1M
20260428T12Z_MSC_CAPS_DewPointDepression_AGL-80m_RLatLon0.03_PT025H.grib2 2026-04-28 18:14 2.1M
20260428T12Z_MSC_CAPS_DewPointDepression_IsbL-0050_RLatLon0.03_PT025H.grib2 2026-04-28 18:14 820
20260428T12Z_MSC_CAPS_DewPointDepression_IsbL-0100_RLatLon0.03_PT025H.grib2 2026-04-28 18:14 139K
20260428T12Z_MSC_CAPS_DewPointDepression_IsbL-0150_RLatLon0.03_PT025H.grib2 2026-04-28 18:14 162K
20260428T12Z_MSC_CAPS_DewPointDepression_IsbL-0175_RLatLon0.03_PT025H.grib2 2026-04-28 18:14 215K
20260428T12Z_MSC_CAPS_DewPointDepression_IsbL-0200_RLatLon0.03_PT025H.grib2 2026-04-28 18:14 395K
20260428T12Z_MSC_CAPS_DewPointDepression_IsbL-0225_RLatLon0.03_PT025H.grib2 2026-04-28 18:14 696K
20260428T12Z_MSC_CAPS_DewPointDepression_IsbL-0250_RLatLon0.03_PT025H.grib2 2026-04-28 18:14 889K
20260428T12Z_MSC_CAPS_DewPointDepression_IsbL-0275_RLatLon0.03_PT025H.grib2 2026-04-28 18:14 1.0M
20260428T12Z_MSC_CAPS_DewPointDepression_IsbL-0300_RLatLon0.03_PT025H.grib2 2026-04-28 18:14 1.1M
20260428T12Z_MSC_CAPS_DewPointDepression_IsbL-0350_RLatLon0.03_PT025H.grib2 2026-04-28 18:14 1.1M
20260428T12Z_MSC_CAPS_DewPointDepression_IsbL-0400_RLatLon0.03_PT025H.grib2 2026-04-28 18:14 1.1M
20260428T12Z_MSC_CAPS_DewPointDepression_IsbL-0450_RLatLon0.03_PT025H.grib2 2026-04-28 18:14 1.1M
20260428T12Z_MSC_CAPS_DewPointDepression_IsbL-0500_RLatLon0.03_PT025H.grib2 2026-04-28 18:14 1.2M
20260428T12Z_MSC_CAPS_DewPointDepression_IsbL-0550_RLatLon0.03_PT025H.grib2 2026-04-28 18:14 1.2M
20260428T12Z_MSC_CAPS_DewPointDepression_IsbL-0600_RLatLon0.03_PT025H.grib2 2026-04-28 18:14 1.2M
20260428T12Z_MSC_CAPS_DewPointDepression_IsbL-0650_RLatLon0.03_PT025H.grib2 2026-04-28 18:14 1.3M
20260428T12Z_MSC_CAPS_DewPointDepression_IsbL-0700_RLatLon0.03_PT025H.grib2 2026-04-28 18:14 1.3M
20260428T12Z_MSC_CAPS_DewPointDepression_IsbL-0750_RLatLon0.03_PT025H.grib2 2026-04-28 18:14 1.3M
20260428T12Z_MSC_CAPS_DewPointDepression_IsbL-0800_RLatLon0.03_PT025H.grib2 2026-04-28 18:14 1.3M
20260428T12Z_MSC_CAPS_DewPointDepression_IsbL-0850_RLatLon0.03_PT025H.grib2 2026-04-28 18:14 1.3M
20260428T12Z_MSC_CAPS_DewPointDepression_IsbL-0875_RLatLon0.03_PT025H.grib2 2026-04-28 18:14 1.3M
20260428T12Z_MSC_CAPS_DewPointDepression_IsbL-0900_RLatLon0.03_PT025H.grib2 2026-04-28 18:14 1.3M
20260428T12Z_MSC_CAPS_DewPointDepression_IsbL-0925_RLatLon0.03_PT025H.grib2 2026-04-28 18:14 1.4M
20260428T12Z_MSC_CAPS_DewPointDepression_IsbL-0950_RLatLon0.03_PT025H.grib2 2026-04-28 18:14 1.4M
20260428T12Z_MSC_CAPS_DewPointDepression_IsbL-0970_RLatLon0.03_PT025H.grib2 2026-04-28 18:14 1.4M
20260428T12Z_MSC_CAPS_DewPointDepression_IsbL-0985_RLatLon0.03_PT025H.grib2 2026-04-28 18:14 1.3M
20260428T12Z_MSC_CAPS_DewPointDepression_IsbL-1000_RLatLon0.03_PT025H.grib2 2026-04-28 18:14 1.3M
20260428T12Z_MSC_CAPS_DewPointDepression_IsbL-1015_RLatLon0.03_PT025H.grib2 2026-04-28 18:14 1.3M
20260428T12Z_MSC_CAPS_DewPoint_AGL-120m_RLatLon0.03_PT025H.grib2 2026-04-28 18:14 3.7M
20260428T12Z_MSC_CAPS_DewPoint_AGL-2m_RLatLon0.03_PT025H.grib2 2026-04-28 18:14 2.2M
20260428T12Z_MSC_CAPS_DewPoint_AGL-40m_RLatLon0.03_PT025H.grib2 2026-04-28 18:14 3.7M
20260428T12Z_MSC_CAPS_DewPoint_AGL-80m_RLatLon0.03_PT025H.grib2 2026-04-28 18:14 3.7M
20260428T12Z_MSC_CAPS_DownwardLongwaveRadiationFlux-Accum_Sfc_RLatLon0.03_PT025H.grib2 2026-04-28 18:14 2.3M
20260428T12Z_MSC_CAPS_DownwardShortwaveRadiationFlux-Accum_NTAtm_RLatLon0.03_PT025H.grib2 2026-04-28 18:14 495K
20260428T12Z_MSC_CAPS_DownwardShortwaveRadiationFlux-Accum_Sfc_RLatLon0.03_PT025H.grib2 2026-04-28 18:14 3.2M
20260428T12Z_MSC_CAPS_FreezingRain-Accum_Sfc_RLatLon0.03_PT025H.grib2 2026-04-28 18:14 791K
20260428T12Z_MSC_CAPS_GeopotentialHeight_IsbL-0050_RLatLon0.03_PT025H.grib2 2026-04-28 18:14 645K
20260428T12Z_MSC_CAPS_GeopotentialHeight_IsbL-0100_RLatLon0.03_PT025H.grib2 2026-04-28 18:14 769K
20260428T12Z_MSC_CAPS_GeopotentialHeight_IsbL-0150_RLatLon0.03_PT025H.grib2 2026-04-28 18:14 731K
20260428T12Z_MSC_CAPS_GeopotentialHeight_IsbL-0175_RLatLon0.03_PT025H.grib2 2026-04-28 18:14 741K
20260428T12Z_MSC_CAPS_GeopotentialHeight_IsbL-0200_RLatLon0.03_PT025H.grib2 2026-04-28 18:14 747K
20260428T12Z_MSC_CAPS_GeopotentialHeight_IsbL-0225_RLatLon0.03_PT025H.grib2 2026-04-28 18:14 756K
20260428T12Z_MSC_CAPS_GeopotentialHeight_IsbL-0250_RLatLon0.03_PT025H.grib2 2026-04-28 18:14 767K
20260428T12Z_MSC_CAPS_GeopotentialHeight_IsbL-0275_RLatLon0.03_PT025H.grib2 2026-04-28 18:14 773K
20260428T12Z_MSC_CAPS_GeopotentialHeight_IsbL-0300_RLatLon0.03_PT025H.grib2 2026-04-28 18:14 778K
20260428T12Z_MSC_CAPS_GeopotentialHeight_IsbL-0350_RLatLon0.03_PT025H.grib2 2026-04-28 18:14 780K
20260428T12Z_MSC_CAPS_GeopotentialHeight_IsbL-0400_RLatLon0.03_PT025H.grib2 2026-04-28 18:14 771K
20260428T12Z_MSC_CAPS_GeopotentialHeight_IsbL-0450_RLatLon0.03_PT025H.grib2 2026-04-28 18:14 762K
20260428T12Z_MSC_CAPS_GeopotentialHeight_IsbL-0500_RLatLon0.03_PT025H.grib2 2026-04-28 18:14 754K
20260428T12Z_MSC_CAPS_GeopotentialHeight_IsbL-0550_RLatLon0.03_PT025H.grib2 2026-04-28 18:14 748K
20260428T12Z_MSC_CAPS_GeopotentialHeight_IsbL-0600_RLatLon0.03_PT025H.grib2 2026-04-28 18:14 630K
20260428T12Z_MSC_CAPS_GeopotentialHeight_IsbL-0650_RLatLon0.03_PT025H.grib2 2026-04-28 18:14 629K
20260428T12Z_MSC_CAPS_GeopotentialHeight_IsbL-0700_RLatLon0.03_PT025H.grib2 2026-04-28 18:14 801K
20260428T12Z_MSC_CAPS_GeopotentialHeight_IsbL-0750_RLatLon0.03_PT025H.grib2 2026-04-28 18:14 802K
20260428T12Z_MSC_CAPS_GeopotentialHeight_IsbL-0800_RLatLon0.03_PT025H.grib2 2026-04-28 18:14 808K
20260428T12Z_MSC_CAPS_GeopotentialHeight_IsbL-0850_RLatLon0.03_PT025H.grib2 2026-04-28 18:14 894K
20260428T12Z_MSC_CAPS_GeopotentialHeight_IsbL-0875_RLatLon0.03_PT025H.grib2 2026-04-28 18:14 901K
20260428T12Z_MSC_CAPS_GeopotentialHeight_IsbL-0900_RLatLon0.03_PT025H.grib2 2026-04-28 18:14 910K
20260428T12Z_MSC_CAPS_GeopotentialHeight_IsbL-0925_RLatLon0.03_PT025H.grib2 2026-04-28 18:14 921K
20260428T12Z_MSC_CAPS_GeopotentialHeight_IsbL-0950_RLatLon0.03_PT025H.grib2 2026-04-28 18:14 934K
20260428T12Z_MSC_CAPS_GeopotentialHeight_IsbL-0970_RLatLon0.03_PT025H.grib2 2026-04-28 18:14 947K
20260428T12Z_MSC_CAPS_GeopotentialHeight_IsbL-0985_RLatLon0.03_PT025H.grib2 2026-04-28 18:14 956K
20260428T12Z_MSC_CAPS_GeopotentialHeight_IsbL-1000_RLatLon0.03_PT025H.grib2 2026-04-28 18:14 966K
20260428T12Z_MSC_CAPS_GeopotentialHeight_IsbL-1015_RLatLon0.03_PT025H.grib2 2026-04-28 18:14 1.0M
20260428T12Z_MSC_CAPS_GeopotentialHeight_Sfc_RLatLon0.03_PT025H.grib2 2026-04-28 18:14 1.0M
20260428T12Z_MSC_CAPS_IcePellets-Accum_Sfc_RLatLon0.03_PT025H.grib2 2026-04-28 18:14 55K
20260428T12Z_MSC_CAPS_LatentHeatNetFlux_Sfc_RLatLon0.03_PT025H.grib2 2026-04-28 18:14 2.1M
20260428T12Z_MSC_CAPS_LiftedIndex-MU-VT_IsbL-0500_RLatLon0.03_PT025H.grib2 2026-04-28 18:14 3.3M
20260428T12Z_MSC_CAPS_MixedLayerThickness_Sfc_RLatLon0.03_PT025H.nc 2026-04-28 18:11 17M
20260428T12Z_MSC_CAPS_NetLongwaveRadiationFlux-Accum_Sfc_RLatLon0.03_PT025H.grib2 2026-04-28 18:14 3.1M
20260428T12Z_MSC_CAPS_NetShortwaveRadiationFlux-Accum_Sfc_RLatLon0.03_PT025H.grib2 2026-04-28 18:14 3.1M
20260428T12Z_MSC_CAPS_PlanetaryBoundaryLayerHeight_Sfc_RLatLon0.03_PT025H.grib2 2026-04-28 18:14 2.7M
20260428T12Z_MSC_CAPS_Precip-Accum_Sfc_RLatLon0.03_PT025H.grib2 2026-04-28 18:14 4.4M
20260428T12Z_MSC_CAPS_PrecipRate_Sfc_RLatLon0.03_PT025H.grib2 2026-04-28 18:14 558K
20260428T12Z_MSC_CAPS_PrecipType-Instant_Sfc_RLatLon0.03_PT025H.grib2 2026-04-28 18:14 1.8M
20260428T12Z_MSC_CAPS_Pressure_MSL_RLatLon0.03_PT025H.grib2 2026-04-28 18:14 772K
20260428T12Z_MSC_CAPS_Pressure_Sfc_RLatLon0.03_PT025H.grib2 2026-04-28 18:14 1.2M
20260428T12Z_MSC_CAPS_RadiativeTemp_Sfc_RLatLon0.03_PT025H.grib2 2026-04-28 18:14 2.1M
20260428T12Z_MSC_CAPS_Rain-Accum_Sfc_RLatLon0.03_PT025H.grib2 2026-04-28 18:14 2.0M
20260428T12Z_MSC_CAPS_RelativeHumidity_AGL-120m_RLatLon0.03_PT025H.grib2 2026-04-28 18:14 2.8M
20260428T12Z_MSC_CAPS_RelativeHumidity_AGL-2m_RLatLon0.03_PT025H.grib2 2026-04-28 18:14 2.9M
20260428T12Z_MSC_CAPS_RelativeHumidity_AGL-40m_RLatLon0.03_PT025H.grib2 2026-04-28 18:14 2.9M
20260428T12Z_MSC_CAPS_RelativeHumidity_AGL-80m_RLatLon0.03_PT025H.grib2 2026-04-28 18:14 2.9M
20260428T12Z_MSC_CAPS_RelativeHumidity_IsbL-0050_RLatLon0.03_PT025H.grib2 2026-04-28 18:14 1.0M
20260428T12Z_MSC_CAPS_RelativeHumidity_IsbL-0100_RLatLon0.03_PT025H.grib2 2026-04-28 18:14 905K
20260428T12Z_MSC_CAPS_RelativeHumidity_IsbL-0150_RLatLon0.03_PT025H.grib2 2026-04-28 18:14 778K
20260428T12Z_MSC_CAPS_RelativeHumidity_IsbL-0175_RLatLon0.03_PT025H.grib2 2026-04-28 18:14 516K
20260428T12Z_MSC_CAPS_RelativeHumidity_IsbL-0200_RLatLon0.03_PT025H.grib2 2026-04-28 18:14 690K
20260428T12Z_MSC_CAPS_RelativeHumidity_IsbL-0225_RLatLon0.03_PT025H.grib2 2026-04-28 18:14 904K
20260428T12Z_MSC_CAPS_RelativeHumidity_IsbL-0250_RLatLon0.03_PT025H.grib2 2026-04-28 18:14 1.1M
20260428T12Z_MSC_CAPS_RelativeHumidity_IsbL-0275_RLatLon0.03_PT025H.grib2 2026-04-28 18:14 1.4M
20260428T12Z_MSC_CAPS_RelativeHumidity_IsbL-0300_RLatLon0.03_PT025H.grib2 2026-04-28 18:14 1.5M
20260428T12Z_MSC_CAPS_RelativeHumidity_IsbL-0350_RLatLon0.03_PT025H.grib2 2026-04-28 18:14 1.8M
20260428T12Z_MSC_CAPS_RelativeHumidity_IsbL-0400_RLatLon0.03_PT025H.grib2 2026-04-28 18:14 1.9M
20260428T12Z_MSC_CAPS_RelativeHumidity_IsbL-0450_RLatLon0.03_PT025H.grib2 2026-04-28 18:14 2.0M
20260428T12Z_MSC_CAPS_RelativeHumidity_IsbL-0500_RLatLon0.03_PT025H.grib2 2026-04-28 18:14 2.2M
20260428T12Z_MSC_CAPS_RelativeHumidity_IsbL-0550_RLatLon0.03_PT025H.grib2 2026-04-28 18:14 2.2M
20260428T12Z_MSC_CAPS_RelativeHumidity_IsbL-0600_RLatLon0.03_PT025H.grib2 2026-04-28 18:14 2.1M
20260428T12Z_MSC_CAPS_RelativeHumidity_IsbL-0650_RLatLon0.03_PT025H.grib2 2026-04-28 18:14 2.2M
20260428T12Z_MSC_CAPS_RelativeHumidity_IsbL-0700_RLatLon0.03_PT025H.grib2 2026-04-28 18:14 2.3M
20260428T12Z_MSC_CAPS_RelativeHumidity_IsbL-0750_RLatLon0.03_PT025H.grib2 2026-04-28 18:14 2.3M
20260428T12Z_MSC_CAPS_RelativeHumidity_IsbL-0800_RLatLon0.03_PT025H.grib2 2026-04-28 18:14 2.4M
20260428T12Z_MSC_CAPS_RelativeHumidity_IsbL-0850_RLatLon0.03_PT025H.grib2 2026-04-28 18:14 2.4M
20260428T12Z_MSC_CAPS_RelativeHumidity_IsbL-0875_RLatLon0.03_PT025H.grib2 2026-04-28 18:14 2.5M
20260428T12Z_MSC_CAPS_RelativeHumidity_IsbL-0900_RLatLon0.03_PT025H.grib2 2026-04-28 18:14 2.5M
20260428T12Z_MSC_CAPS_RelativeHumidity_IsbL-0925_RLatLon0.03_PT025H.grib2 2026-04-28 18:14 2.6M
20260428T12Z_MSC_CAPS_RelativeHumidity_IsbL-0950_RLatLon0.03_PT025H.grib2 2026-04-28 18:14 2.7M
20260428T12Z_MSC_CAPS_RelativeHumidity_IsbL-0970_RLatLon0.03_PT025H.grib2 2026-04-28 18:14 2.8M
20260428T12Z_MSC_CAPS_RelativeHumidity_IsbL-0985_RLatLon0.03_PT025H.grib2 2026-04-28 18:14 2.9M
20260428T12Z_MSC_CAPS_RelativeHumidity_IsbL-1000_RLatLon0.03_PT025H.grib2 2026-04-28 18:14 2.9M
20260428T12Z_MSC_CAPS_RelativeHumidity_IsbL-1015_RLatLon0.03_PT025H.grib2 2026-04-28 18:14 3.0M
20260428T12Z_MSC_CAPS_Runoff-Accum_Sfc_RLatLon0.03_PT025H.grib2 2026-04-28 18:14 371K
20260428T12Z_MSC_CAPS_SeaIceAreaFraction_Sfc_RLatLon0.03_PT025H.nc 2026-04-28 18:11 15M
20260428T12Z_MSC_CAPS_SeaIceCompressiveStrength_Sfc_RLatLon0.03_PT025H.nc 2026-04-28 18:11 15M
20260428T12Z_MSC_CAPS_SeaIceDivergence_Sfc_RLatLon0.03_PT025H.nc 2026-04-28 18:11 15M
20260428T12Z_MSC_CAPS_SeaIceInternalPressure_Sfc_RLatLon0.03_PT025H.nc 2026-04-28 18:11 15M
20260428T12Z_MSC_CAPS_SeaIceShear_Sfc_RLatLon0.03_PT025H.nc 2026-04-28 18:11 14M
20260428T12Z_MSC_CAPS_SeaIceSnowTemp_Sfc_RLatLon0.03_PT025H.nc 2026-04-28 18:11 14M
20260428T12Z_MSC_CAPS_SeaIceSnowVolume_Sfc_RLatLon0.03_PT025H.nc 2026-04-28 18:11 15M
20260428T12Z_MSC_CAPS_SeaIceVelocityX_Sfc_RLatLon0.03_PT025H.nc 2026-04-28 18:11 15M
20260428T12Z_MSC_CAPS_SeaIceVelocityY_Sfc_RLatLon0.03_PT025H.nc 2026-04-28 18:11 15M
20260428T12Z_MSC_CAPS_SeaIceVolume_Sfc_RLatLon0.03_PT025H.nc 2026-04-28 18:11 15M
20260428T12Z_MSC_CAPS_SeaSurfaceHeight_Sfc_RLatLon0.03_PT025H.nc 2026-04-28 18:11 16M
20260428T12Z_MSC_CAPS_SeaWaterSalinity_DBS-0.5m_RLatLon0.03_PT025H.nc 2026-04-28 18:11 16M
20260428T12Z_MSC_CAPS_SeaWaterSalinity_DBS-all_RLatLon0.03_PT025H.nc 2026-04-28 18:11 107M
20260428T12Z_MSC_CAPS_SeaWaterTemp_DBS-0.5m_RLatLon0.03_PT025H.nc 2026-04-28 18:11 14M
20260428T12Z_MSC_CAPS_SeaWaterTemp_DBS-all_RLatLon0.03_PT025H.nc 2026-04-28 18:11 87M
20260428T12Z_MSC_CAPS_SeaWaterVelocityX_DBS-0.5m_RLatLon0.03_PT025H.nc 2026-04-28 18:11 17M
20260428T12Z_MSC_CAPS_SeaWaterVelocityX_DBS-all_RLatLon0.03_PT025H.nc 2026-04-28 18:11 210M
20260428T12Z_MSC_CAPS_SeaWaterVelocityY_DBS-0.5m_RLatLon0.03_PT025H.nc 2026-04-28 18:11 17M
20260428T12Z_MSC_CAPS_SeaWaterVelocityY_DBS-all_RLatLon0.03_PT025H.nc 2026-04-28 18:11 210M
20260428T12Z_MSC_CAPS_SensibleHeatNetFlux_Sfc_RLatLon0.03_PT025H.grib2 2026-04-28 18:14 2.0M
20260428T12Z_MSC_CAPS_ShowalterIndex_IsbL-0500_RLatLon0.03_PT025H.grib2 2026-04-28 18:14 4.3M
20260428T12Z_MSC_CAPS_Snow-Accum_Sfc_RLatLon0.03_PT025H.grib2 2026-04-28 18:14 3.6M
20260428T12Z_MSC_CAPS_SnowDensity_Sfc_RLatLon0.03_PT025H.grib2 2026-04-28 18:14 1.3M
20260428T12Z_MSC_CAPS_SnowDepthWaterEquivalent_Sfc_RLatLon0.03_PT025H.grib2 2026-04-28 18:14 716K
20260428T12Z_MSC_CAPS_SnowDepth_Sfc_RLatLon0.03_PT025H.grib2 2026-04-28 18:14 1.2M
20260428T12Z_MSC_CAPS_SoilTemp_DBS-0to10cm_RLatLon0.03_PT025H.grib2 2026-04-28 18:14 1.6M
20260428T12Z_MSC_CAPS_SoilTemp_Sfc_RLatLon0.03_PT025H.grib2 2026-04-28 18:14 1.9M
20260428T12Z_MSC_CAPS_SoilVolumetricIceContent_Sfc_RLatLon0.03_PT025H.grib2 2026-04-28 18:14 1.5M
20260428T12Z_MSC_CAPS_SoilVolumetricWaterContent_DBS-0to10cm_RLatLon0.03_PT025H.grib2 2026-04-28 18:14 1.2M
20260428T12Z_MSC_CAPS_SoilVolumetricWaterContent_DBS-0to1cm_RLatLon0.03_PT025H.grib2 2026-04-28 18:14 1.7M
20260428T12Z_MSC_CAPS_SpecificHumidity_AGL-120m_RLatLon0.03_PT025H.grib2 2026-04-28 18:14 1.7M
20260428T12Z_MSC_CAPS_SpecificHumidity_AGL-2m_RLatLon0.03_PT025H.grib2 2026-04-28 18:14 2.1M
20260428T12Z_MSC_CAPS_SpecificHumidity_AGL-40m_RLatLon0.03_PT025H.grib2 2026-04-28 18:14 1.8M
20260428T12Z_MSC_CAPS_SpecificHumidity_AGL-80m_RLatLon0.03_PT025H.grib2 2026-04-28 18:14 1.8M
20260428T12Z_MSC_CAPS_SpecificHumidity_IsbL-0050_RLatLon0.03_PT025H.grib2 2026-04-28 18:14 903K
20260428T12Z_MSC_CAPS_SpecificHumidity_IsbL-0100_RLatLon0.03_PT025H.grib2 2026-04-28 18:14 1.0M
20260428T12Z_MSC_CAPS_SpecificHumidity_IsbL-0150_RLatLon0.03_PT025H.grib2 2026-04-28 18:14 1.0M
20260428T12Z_MSC_CAPS_SpecificHumidity_IsbL-0175_RLatLon0.03_PT025H.grib2 2026-04-28 18:14 1.0M
20260428T12Z_MSC_CAPS_SpecificHumidity_IsbL-0200_RLatLon0.03_PT025H.grib2 2026-04-28 18:14 877K
20260428T12Z_MSC_CAPS_SpecificHumidity_IsbL-0225_RLatLon0.03_PT025H.grib2 2026-04-28 18:14 1.1M
20260428T12Z_MSC_CAPS_SpecificHumidity_IsbL-0250_RLatLon0.03_PT025H.grib2 2026-04-28 18:14 1.1M
20260428T12Z_MSC_CAPS_SpecificHumidity_IsbL-0275_RLatLon0.03_PT025H.grib2 2026-04-28 18:14 1.1M
20260428T12Z_MSC_CAPS_SpecificHumidity_IsbL-0300_RLatLon0.03_PT025H.grib2 2026-04-28 18:14 1.2M
20260428T12Z_MSC_CAPS_SpecificHumidity_IsbL-0350_RLatLon0.03_PT025H.grib2 2026-04-28 18:14 1.2M
20260428T12Z_MSC_CAPS_SpecificHumidity_IsbL-0400_RLatLon0.03_PT025H.grib2 2026-04-28 18:14 1.1M
20260428T12Z_MSC_CAPS_SpecificHumidity_IsbL-0450_RLatLon0.03_PT025H.grib2 2026-04-28 18:14 1.1M
20260428T12Z_MSC_CAPS_SpecificHumidity_IsbL-0500_RLatLon0.03_PT025H.grib2 2026-04-28 18:14 1.0M
20260428T12Z_MSC_CAPS_SpecificHumidity_IsbL-0550_RLatLon0.03_PT025H.grib2 2026-04-28 18:14 1.2M
20260428T12Z_MSC_CAPS_SpecificHumidity_IsbL-0600_RLatLon0.03_PT025H.grib2 2026-04-28 18:14 1.4M
20260428T12Z_MSC_CAPS_SpecificHumidity_IsbL-0650_RLatLon0.03_PT025H.grib2 2026-04-28 18:14 1.5M
20260428T12Z_MSC_CAPS_SpecificHumidity_IsbL-0700_RLatLon0.03_PT025H.grib2 2026-04-28 18:14 1.6M
20260428T12Z_MSC_CAPS_SpecificHumidity_IsbL-0750_RLatLon0.03_PT025H.grib2 2026-04-28 18:14 1.7M
20260428T12Z_MSC_CAPS_SpecificHumidity_IsbL-0800_RLatLon0.03_PT025H.grib2 2026-04-28 18:14 1.5M
20260428T12Z_MSC_CAPS_SpecificHumidity_IsbL-0850_RLatLon0.03_PT025H.grib2 2026-04-28 18:14 1.6M
20260428T12Z_MSC_CAPS_SpecificHumidity_IsbL-0875_RLatLon0.03_PT025H.grib2 2026-04-28 18:14 1.7M
20260428T12Z_MSC_CAPS_SpecificHumidity_IsbL-0900_RLatLon0.03_PT025H.grib2 2026-04-28 18:14 1.7M
20260428T12Z_MSC_CAPS_SpecificHumidity_IsbL-0925_RLatLon0.03_PT025H.grib2 2026-04-28 18:14 1.8M
20260428T12Z_MSC_CAPS_SpecificHumidity_IsbL-0950_RLatLon0.03_PT025H.grib2 2026-04-28 18:14 1.9M
20260428T12Z_MSC_CAPS_SpecificHumidity_IsbL-0970_RLatLon0.03_PT025H.grib2 2026-04-28 18:14 2.0M
20260428T12Z_MSC_CAPS_SpecificHumidity_IsbL-0985_RLatLon0.03_PT025H.grib2 2026-04-28 18:14 2.0M
20260428T12Z_MSC_CAPS_SpecificHumidity_IsbL-1000_RLatLon0.03_PT025H.grib2 2026-04-28 18:14 2.1M
20260428T12Z_MSC_CAPS_SpecificHumidity_IsbL-1015_RLatLon0.03_PT025H.grib2 2026-04-28 18:14 2.1M
20260428T12Z_MSC_CAPS_SpecificHumidity_Sfc_RLatLon0.03_PT025H.grib2 2026-04-28 18:14 2.0M
20260428T12Z_MSC_CAPS_StormRelativeHelicity_Sfc_RLatLon0.03_PT025H.grib2 2026-04-28 18:14 3.2M
20260428T12Z_MSC_CAPS_Thickness_IsbL-1000to0500_RLatLon0.03_PT025H.grib2 2026-04-28 18:14 429K
20260428T12Z_MSC_CAPS_TotalCloudCover_Sfc_RLatLon0.03_PT025H.grib2 2026-04-28 18:14 3.6M
20260428T12Z_MSC_CAPS_TurboclineDepth_Sfc_RLatLon0.03_PT025H.nc 2026-04-28 18:11 16M
20260428T12Z_MSC_CAPS_UpwardLongwaveRadiationFlux_NTAtm_RLatLon0.03_PT025H.grib2 2026-04-28 18:14 2.9M
20260428T12Z_MSC_CAPS_UpwardShortwaveRadiationFlux_NTAtm_RLatLon0.03_PT025H.grib2 2026-04-28 18:14 2.1M
20260428T12Z_MSC_CAPS_VerticalVelocity_IsbL-0250_RLatLon0.03_PT025H.grib2 2026-04-28 18:14 890K
20260428T12Z_MSC_CAPS_VerticalVelocity_IsbL-0500_RLatLon0.03_PT025H.grib2 2026-04-28 18:14 1.0M
20260428T12Z_MSC_CAPS_VerticalVelocity_IsbL-0700_RLatLon0.03_PT025H.grib2 2026-04-28 18:14 929K
20260428T12Z_MSC_CAPS_VerticalVelocity_IsbL-0850_RLatLon0.03_PT025H.grib2 2026-04-28 18:14 1.1M
20260428T12Z_MSC_CAPS_VerticalVelocity_IsbL-1000_RLatLon0.03_PT025H.grib2 2026-04-28 18:14 1.1M
20260428T12Z_MSC_CAPS_WindDir_AGL-10m_RLatLon0.03_PT025H.grib2 2026-04-28 18:14 2.4M
20260428T12Z_MSC_CAPS_WindDir_AGL-120m_RLatLon0.03_PT025H.grib2 2026-04-28 18:14 1.3M
20260428T12Z_MSC_CAPS_WindDir_AGL-40m_RLatLon0.03_PT025H.grib2 2026-04-28 18:14 1.4M
20260428T12Z_MSC_CAPS_WindDir_AGL-80m_RLatLon0.03_PT025H.grib2 2026-04-28 18:14 1.3M
20260428T12Z_MSC_CAPS_WindDir_IsbL-0050_RLatLon0.03_PT025H.grib2 2026-04-28 18:14 1.0M
20260428T12Z_MSC_CAPS_WindDir_IsbL-0100_RLatLon0.03_PT025H.grib2 2026-04-28 18:14 1.0M
20260428T12Z_MSC_CAPS_WindDir_IsbL-0150_RLatLon0.03_PT025H.grib2 2026-04-28 18:14 1.0M
20260428T12Z_MSC_CAPS_WindDir_IsbL-0175_RLatLon0.03_PT025H.grib2 2026-04-28 18:14 1.0M
20260428T12Z_MSC_CAPS_WindDir_IsbL-0200_RLatLon0.03_PT025H.grib2 2026-04-28 18:14 1.1M
20260428T12Z_MSC_CAPS_WindDir_IsbL-0225_RLatLon0.03_PT025H.grib2 2026-04-28 18:14 1.1M
20260428T12Z_MSC_CAPS_WindDir_IsbL-0250_RLatLon0.03_PT025H.grib2 2026-04-28 18:14 1.1M
20260428T12Z_MSC_CAPS_WindDir_IsbL-0275_RLatLon0.03_PT025H.grib2 2026-04-28 18:14 1.1M
20260428T12Z_MSC_CAPS_WindDir_IsbL-0300_RLatLon0.03_PT025H.grib2 2026-04-28 18:14 1.1M
20260428T12Z_MSC_CAPS_WindDir_IsbL-0350_RLatLon0.03_PT025H.grib2 2026-04-28 18:14 1.1M
20260428T12Z_MSC_CAPS_WindDir_IsbL-0400_RLatLon0.03_PT025H.grib2 2026-04-28 18:14 1.1M
20260428T12Z_MSC_CAPS_WindDir_IsbL-0450_RLatLon0.03_PT025H.grib2 2026-04-28 18:14 1.2M
20260428T12Z_MSC_CAPS_WindDir_IsbL-0500_RLatLon0.03_PT025H.grib2 2026-04-28 18:14 1.1M
20260428T12Z_MSC_CAPS_WindDir_IsbL-0550_RLatLon0.03_PT025H.grib2 2026-04-28 18:14 1.2M
20260428T12Z_MSC_CAPS_WindDir_IsbL-0600_RLatLon0.03_PT025H.grib2 2026-04-28 18:14 1.3M
20260428T12Z_MSC_CAPS_WindDir_IsbL-0650_RLatLon0.03_PT025H.grib2 2026-04-28 18:14 1.3M
20260428T12Z_MSC_CAPS_WindDir_IsbL-0700_RLatLon0.03_PT025H.grib2 2026-04-28 18:14 1.4M
20260428T12Z_MSC_CAPS_WindDir_IsbL-0750_RLatLon0.03_PT025H.grib2 2026-04-28 18:14 1.5M
20260428T12Z_MSC_CAPS_WindDir_IsbL-0800_RLatLon0.03_PT025H.grib2 2026-04-28 18:14 1.6M
20260428T12Z_MSC_CAPS_WindDir_IsbL-0850_RLatLon0.03_PT025H.grib2 2026-04-28 18:14 1.7M
20260428T12Z_MSC_CAPS_WindDir_IsbL-0875_RLatLon0.03_PT025H.grib2 2026-04-28 18:14 1.9M
20260428T12Z_MSC_CAPS_WindDir_IsbL-0900_RLatLon0.03_PT025H.grib2 2026-04-28 18:14 1.9M
20260428T12Z_MSC_CAPS_WindDir_IsbL-0925_RLatLon0.03_PT025H.grib2 2026-04-28 18:14 2.0M
20260428T12Z_MSC_CAPS_WindDir_IsbL-0950_RLatLon0.03_PT025H.grib2 2026-04-28 18:14 2.1M
20260428T12Z_MSC_CAPS_WindDir_IsbL-0970_RLatLon0.03_PT025H.grib2 2026-04-28 18:14 2.1M
20260428T12Z_MSC_CAPS_WindDir_IsbL-0985_RLatLon0.03_PT025H.grib2 2026-04-28 18:14 2.2M
20260428T12Z_MSC_CAPS_WindDir_IsbL-1000_RLatLon0.03_PT025H.grib2 2026-04-28 18:14 2.3M
20260428T12Z_MSC_CAPS_WindDir_IsbL-1015_RLatLon0.03_PT025H.grib2 2026-04-28 18:14 2.4M
20260428T12Z_MSC_CAPS_WindGust-Max_AGL-10m_RLatLon0.03_PT025H.grib2 2026-04-28 18:14 2.3M
20260428T12Z_MSC_CAPS_WindGust-Min_AGL-10m_RLatLon0.03_PT025H.grib2 2026-04-28 18:14 2.4M
20260428T12Z_MSC_CAPS_WindGust_AGL-10m_RLatLon0.03_PT025H.grib2 2026-04-28 18:14 2.5M
20260428T12Z_MSC_CAPS_WindSpeed_AGL-10m_RLatLon0.03_PT025H.grib2 2026-04-28 18:14 2.1M
20260428T12Z_MSC_CAPS_WindSpeed_AGL-120m_RLatLon0.03_PT025H.grib2 2026-04-28 18:14 1.2M
20260428T12Z_MSC_CAPS_WindSpeed_AGL-40m_RLatLon0.03_PT025H.grib2 2026-04-28 18:14 1.3M
20260428T12Z_MSC_CAPS_WindSpeed_AGL-80m_RLatLon0.03_PT025H.grib2 2026-04-28 18:14 1.2M
20260428T12Z_MSC_CAPS_WindSpeed_IsbL-0050_RLatLon0.03_PT025H.grib2 2026-04-28 18:14 1.0M
20260428T12Z_MSC_CAPS_WindSpeed_IsbL-0100_RLatLon0.03_PT025H.grib2 2026-04-28 18:14 1.0M
20260428T12Z_MSC_CAPS_WindSpeed_IsbL-0150_RLatLon0.03_PT025H.grib2 2026-04-28 18:14 1.1M
20260428T12Z_MSC_CAPS_WindSpeed_IsbL-0175_RLatLon0.03_PT025H.grib2 2026-04-28 18:14 1.1M
20260428T12Z_MSC_CAPS_WindSpeed_IsbL-0200_RLatLon0.03_PT025H.grib2 2026-04-28 18:14 1.2M
20260428T12Z_MSC_CAPS_WindSpeed_IsbL-0225_RLatLon0.03_PT025H.grib2 2026-04-28 18:14 951K
20260428T12Z_MSC_CAPS_WindSpeed_IsbL-0250_RLatLon0.03_PT025H.grib2 2026-04-28 18:14 967K
20260428T12Z_MSC_CAPS_WindSpeed_IsbL-0275_RLatLon0.03_PT025H.grib2 2026-04-28 18:14 1.0M
20260428T12Z_MSC_CAPS_WindSpeed_IsbL-0300_RLatLon0.03_PT025H.grib2 2026-04-28 18:14 1.0M
20260428T12Z_MSC_CAPS_WindSpeed_IsbL-0350_RLatLon0.03_PT025H.grib2 2026-04-28 18:14 1.0M
20260428T12Z_MSC_CAPS_WindSpeed_IsbL-0400_RLatLon0.03_PT025H.grib2 2026-04-28 18:14 1.0M
20260428T12Z_MSC_CAPS_WindSpeed_IsbL-0450_RLatLon0.03_PT025H.grib2 2026-04-28 18:14 1.0M
20260428T12Z_MSC_CAPS_WindSpeed_IsbL-0500_RLatLon0.03_PT025H.grib2 2026-04-28 18:14 1.2M
20260428T12Z_MSC_CAPS_WindSpeed_IsbL-0550_RLatLon0.03_PT025H.grib2 2026-04-28 18:14 1.3M
20260428T12Z_MSC_CAPS_WindSpeed_IsbL-0600_RLatLon0.03_PT025H.grib2 2026-04-28 18:14 1.3M
20260428T12Z_MSC_CAPS_WindSpeed_IsbL-0650_RLatLon0.03_PT025H.grib2 2026-04-28 18:14 1.4M
20260428T12Z_MSC_CAPS_WindSpeed_IsbL-0700_RLatLon0.03_PT025H.grib2 2026-04-28 18:14 1.5M
20260428T12Z_MSC_CAPS_WindSpeed_IsbL-0750_RLatLon0.03_PT025H.grib2 2026-04-28 18:14 1.5M
20260428T12Z_MSC_CAPS_WindSpeed_IsbL-0800_RLatLon0.03_PT025H.grib2 2026-04-28 18:14 1.6M
20260428T12Z_MSC_CAPS_WindSpeed_IsbL-0850_RLatLon0.03_PT025H.grib2 2026-04-28 18:14 1.7M
20260428T12Z_MSC_CAPS_WindSpeed_IsbL-0875_RLatLon0.03_PT025H.grib2 2026-04-28 18:14 1.8M
20260428T12Z_MSC_CAPS_WindSpeed_IsbL-0900_RLatLon0.03_PT025H.grib2 2026-04-28 18:14 1.8M
20260428T12Z_MSC_CAPS_WindSpeed_IsbL-0925_RLatLon0.03_PT025H.grib2 2026-04-28 18:14 1.9M
20260428T12Z_MSC_CAPS_WindSpeed_IsbL-0950_RLatLon0.03_PT025H.grib2 2026-04-28 18:14 2.0M
20260428T12Z_MSC_CAPS_WindSpeed_IsbL-0970_RLatLon0.03_PT025H.grib2 2026-04-28 18:14 2.0M
20260428T12Z_MSC_CAPS_WindSpeed_IsbL-0985_RLatLon0.03_PT025H.grib2 2026-04-28 18:14 2.0M
20260428T12Z_MSC_CAPS_WindSpeed_IsbL-1000_RLatLon0.03_PT025H.grib2 2026-04-28 18:14 2.0M
20260428T12Z_MSC_CAPS_WindSpeed_IsbL-1015_RLatLon0.03_PT025H.grib2 2026-04-28 18:14 2.0M
20260428T12Z_MSC_CAPS_WindU_AGL-10m_RLatLon0.03_PT025H.grib2 2026-04-28 18:14 1.5M
20260428T12Z_MSC_CAPS_WindU_AGL-120m_RLatLon0.03_PT025H.grib2 2026-04-28 18:14 1.0M
20260428T12Z_MSC_CAPS_WindU_AGL-40m_RLatLon0.03_PT025H.grib2 2026-04-28 18:14 940K
20260428T12Z_MSC_CAPS_WindU_AGL-80m_RLatLon0.03_PT025H.grib2 2026-04-28 18:14 912K
20260428T12Z_MSC_CAPS_WindU_IsbL-0050_RLatLon0.03_PT025H.grib2 2026-04-28 18:14 937K
20260428T12Z_MSC_CAPS_WindU_IsbL-0100_RLatLon0.03_PT025H.grib2 2026-04-28 18:14 1.0M
20260428T12Z_MSC_CAPS_WindU_IsbL-0150_RLatLon0.03_PT025H.grib2 2026-04-28 18:14 715K
20260428T12Z_MSC_CAPS_WindU_IsbL-0175_RLatLon0.03_PT025H.grib2 2026-04-28 18:14 730K
20260428T12Z_MSC_CAPS_WindU_IsbL-0200_RLatLon0.03_PT025H.grib2 2026-04-28 18:14 873K
20260428T12Z_MSC_CAPS_WindU_IsbL-0225_RLatLon0.03_PT025H.grib2 2026-04-28 18:14 890K
20260428T12Z_MSC_CAPS_WindU_IsbL-0250_RLatLon0.03_PT025H.grib2 2026-04-28 18:14 910K
20260428T12Z_MSC_CAPS_WindU_IsbL-0275_RLatLon0.03_PT025H.grib2 2026-04-28 18:14 708K
20260428T12Z_MSC_CAPS_WindU_IsbL-0300_RLatLon0.03_PT025H.grib2 2026-04-28 18:14 923K
20260428T12Z_MSC_CAPS_WindU_IsbL-0350_RLatLon0.03_PT025H.grib2 2026-04-28 18:14 939K
20260428T12Z_MSC_CAPS_WindU_IsbL-0400_RLatLon0.03_PT025H.grib2 2026-04-28 18:14 947K
20260428T12Z_MSC_CAPS_WindU_IsbL-0450_RLatLon0.03_PT025H.grib2 2026-04-28 18:14 963K
20260428T12Z_MSC_CAPS_WindU_IsbL-0500_RLatLon0.03_PT025H.grib2 2026-04-28 18:14 869K
20260428T12Z_MSC_CAPS_WindU_IsbL-0550_RLatLon0.03_PT025H.grib2 2026-04-28 18:14 905K
20260428T12Z_MSC_CAPS_WindU_IsbL-0600_RLatLon0.03_PT025H.grib2 2026-04-28 18:14 929K
20260428T12Z_MSC_CAPS_WindU_IsbL-0650_RLatLon0.03_PT025H.grib2 2026-04-28 18:14 1.2M
20260428T12Z_MSC_CAPS_WindU_IsbL-0700_RLatLon0.03_PT025H.grib2 2026-04-28 18:14 1.3M
20260428T12Z_MSC_CAPS_WindU_IsbL-0750_RLatLon0.03_PT025H.grib2 2026-04-28 18:14 1.3M
20260428T12Z_MSC_CAPS_WindU_IsbL-0800_RLatLon0.03_PT025H.grib2 2026-04-28 18:14 1.1M
20260428T12Z_MSC_CAPS_WindU_IsbL-0850_RLatLon0.03_PT025H.grib2 2026-04-28 18:14 1.2M
20260428T12Z_MSC_CAPS_WindU_IsbL-0875_RLatLon0.03_PT025H.grib2 2026-04-28 18:14 1.3M
20260428T12Z_MSC_CAPS_WindU_IsbL-0900_RLatLon0.03_PT025H.grib2 2026-04-28 18:14 1.3M
20260428T12Z_MSC_CAPS_WindU_IsbL-0925_RLatLon0.03_PT025H.grib2 2026-04-28 18:14 1.4M
20260428T12Z_MSC_CAPS_WindU_IsbL-0950_RLatLon0.03_PT025H.grib2 2026-04-28 18:14 1.4M
20260428T12Z_MSC_CAPS_WindU_IsbL-0970_RLatLon0.03_PT025H.grib2 2026-04-28 18:14 1.4M
20260428T12Z_MSC_CAPS_WindU_IsbL-0985_RLatLon0.03_PT025H.grib2 2026-04-28 18:14 1.4M
20260428T12Z_MSC_CAPS_WindU_IsbL-1000_RLatLon0.03_PT025H.grib2 2026-04-28 18:14 1.4M
20260428T12Z_MSC_CAPS_WindU_IsbL-1015_RLatLon0.03_PT025H.grib2 2026-04-28 18:14 1.5M
20260428T12Z_MSC_CAPS_WindV_AGL-10m_RLatLon0.03_PT025H.grib2 2026-04-28 18:14 2.0M
20260428T12Z_MSC_CAPS_WindV_AGL-120m_RLatLon0.03_PT025H.grib2 2026-04-28 18:14 1.2M
20260428T12Z_MSC_CAPS_WindV_AGL-40m_RLatLon0.03_PT025H.grib2 2026-04-28 18:14 1.2M
20260428T12Z_MSC_CAPS_WindV_AGL-80m_RLatLon0.03_PT025H.grib2 2026-04-28 18:14 1.2M
20260428T12Z_MSC_CAPS_WindV_IsbL-0050_RLatLon0.03_PT025H.grib2 2026-04-28 18:14 937K
20260428T12Z_MSC_CAPS_WindV_IsbL-0100_RLatLon0.03_PT025H.grib2 2026-04-28 18:14 801K
20260428T12Z_MSC_CAPS_WindV_IsbL-0150_RLatLon0.03_PT025H.grib2 2026-04-28 18:14 923K
20260428T12Z_MSC_CAPS_WindV_IsbL-0175_RLatLon0.03_PT025H.grib2 2026-04-28 18:14 729K
20260428T12Z_MSC_CAPS_WindV_IsbL-0200_RLatLon0.03_PT025H.grib2 2026-04-28 18:14 871K
20260428T12Z_MSC_CAPS_WindV_IsbL-0225_RLatLon0.03_PT025H.grib2 2026-04-28 18:14 888K
20260428T12Z_MSC_CAPS_WindV_IsbL-0250_RLatLon0.03_PT025H.grib2 2026-04-28 18:14 909K
20260428T12Z_MSC_CAPS_WindV_IsbL-0275_RLatLon0.03_PT025H.grib2 2026-04-28 18:14 916K
20260428T12Z_MSC_CAPS_WindV_IsbL-0300_RLatLon0.03_PT025H.grib2 2026-04-28 18:14 923K
20260428T12Z_MSC_CAPS_WindV_IsbL-0350_RLatLon0.03_PT025H.grib2 2026-04-28 18:14 940K
20260428T12Z_MSC_CAPS_WindV_IsbL-0400_RLatLon0.03_PT025H.grib2 2026-04-28 18:14 948K
20260428T12Z_MSC_CAPS_WindV_IsbL-0450_RLatLon0.03_PT025H.grib2 2026-04-28 18:14 965K
20260428T12Z_MSC_CAPS_WindV_IsbL-0500_RLatLon0.03_PT025H.grib2 2026-04-28 18:14 873K
20260428T12Z_MSC_CAPS_WindV_IsbL-0550_RLatLon0.03_PT025H.grib2 2026-04-28 18:14 910K
20260428T12Z_MSC_CAPS_WindV_IsbL-0600_RLatLon0.03_PT025H.grib2 2026-04-28 18:14 931K
20260428T12Z_MSC_CAPS_WindV_IsbL-0650_RLatLon0.03_PT025H.grib2 2026-04-28 18:14 1.2M
20260428T12Z_MSC_CAPS_WindV_IsbL-0700_RLatLon0.03_PT025H.grib2 2026-04-28 18:14 1.2M
20260428T12Z_MSC_CAPS_WindV_IsbL-0750_RLatLon0.03_PT025H.grib2 2026-04-28 18:14 1.3M
20260428T12Z_MSC_CAPS_WindV_IsbL-0800_RLatLon0.03_PT025H.grib2 2026-04-28 18:14 1.1M
20260428T12Z_MSC_CAPS_WindV_IsbL-0850_RLatLon0.03_PT025H.grib2 2026-04-28 18:14 1.5M
20260428T12Z_MSC_CAPS_WindV_IsbL-0875_RLatLon0.03_PT025H.grib2 2026-04-28 18:14 1.5M
20260428T12Z_MSC_CAPS_WindV_IsbL-0900_RLatLon0.03_PT025H.grib2 2026-04-28 18:14 1.6M
20260428T12Z_MSC_CAPS_WindV_IsbL-0925_RLatLon0.03_PT025H.grib2 2026-04-28 18:14 1.6M
20260428T12Z_MSC_CAPS_WindV_IsbL-0950_RLatLon0.03_PT025H.grib2 2026-04-28 18:14 1.7M
20260428T12Z_MSC_CAPS_WindV_IsbL-0970_RLatLon0.03_PT025H.grib2 2026-04-28 18:14 1.7M
20260428T12Z_MSC_CAPS_WindV_IsbL-0985_RLatLon0.03_PT025H.grib2 2026-04-28 18:14 1.8M
20260428T12Z_MSC_CAPS_WindV_IsbL-1000_RLatLon0.03_PT025H.grib2 2026-04-28 18:14 1.9M
20260428T12Z_MSC_CAPS_WindV_IsbL-1015_RLatLon0.03_PT025H.grib2 2026-04-28 18:14 2.0M